Time,TemperatureF,DewpointF,PressureIn,WindDirection,WindDirectionDegrees,WindSpeedMPH,WindSpeedGustMPH,Humidity,HourlyPrecipIn,Conditions,Clouds,dailyrainin,SoftwareType,DateUTC
2013-02-06 00:09:00,26.7,25.0,29.90,WSW,244,0.0,1.0,91,0.00,,,0.00,weatherlink.com 1.10,2013-02-06 05:09:00,
2013-02-06 00:24:00,26.9,25.0,29.90,North,360,1.0,1.0,91,0.00,,,0.00,weatherlink.com 1.10,2013-02-06 05:24:00,
2013-02-06 00:39:00,27.1,25.0,29.90,NW,308,0.0,2.0,91,0.00,,,0.00,weatherlink.com 1.10,2013-02-06 05:39:00,
2013-02-06 00:54:00,27.2,25.0,29.90,NW,305,0.0,2.0,92,0.00,,,0.00,weatherlink.com 1.10,2013-02-06 05:54:00,
2013-02-06 01:11:00,27.5,26.0,29.91,NW,304,0.0,4.0,92,0.00,,,0.00,weatherlink.com 1.10,2013-02-06 06:11:00,
2013-02-06 01:26:00,27.7,26.0,29.91,WNW,300,1.0,3.0,92,0.00,,,0.00,weatherlink.com 1.10,2013-02-06 06:26:00,
2013-02-06 01:41:00,27.8,26.0,29.91,NW,317,2.0,3.0,92,0.00,,,0.00,weatherlink.com 1.10,2013-02-06 06:41:00,
2013-02-06 01:56:00,27.5,26.0,29.91,NNW,339,1.0,4.0,92,0.00,,,0.00,weatherlink.com 1.10,2013-02-06 06:56:00,
2013-02-06 02:11:00,27.3,25.0,29.91,WNW,293,2.0,5.0,92,0.00,,,0.00,weatherlink.com 1.10,2013-02-06 07:11:00,
2013-02-06 02:26:00,27.2,25.0,29.91,NW,312,2.0,5.0,92,0.00,,,0.00,weatherlink.com 1.10,2013-02-06 07:26:00,
2013-02-06 02:41:00,27.0,25.0,29.91,NNW,342,0.0,5.0,92,0.00,,,0.00,weatherlink.com 1.10,2013-02-06 07:41:00,
2013-02-06 02:56:00,26.7,25.0,29.90,North,355,3.0,4.0,92,0.00,,,0.00,weatherlink.com 1.10,2013-02-06 07:56:00,
2013-02-06 03:11:00,26.8,25.0,29.90,NNW,348,1.0,4.0,92,0.00,,,0.00,weatherlink.com 1.10,2013-02-06 08:11:00,
2013-02-06 03:27:00,26.7,25.0,29.89,North,5,0.0,5.0,92,0.00,,,0.00,weatherlink.com 1.10,2013-02-06 08:27:00,
2013-02-06 03:42:00,26.6,25.0,29.89,NNW,334,1.0,5.0,92,0.00,,,0.00,weatherlink.com 1.10,2013-02-06 08:42:00,
2013-02-06 03:57:00,26.6,25.0,29.89,North,355,0.0,5.0,92,0.00,,,0.00,weatherlink.com 1.10,2013-02-06 08:57:00,
2013-02-06 04:12:00,26.7,25.0,29.90,North,355,0.0,4.0,92,0.00,,,0.00,weatherlink.com 1.10,2013-02-06 09:12:00,
2013-02-06 04:27:00,26.7,25.0,29.90,NNW,344,0.0,4.0,92,0.00,,,0.00,weatherlink.com 1.10,2013-02-06 09:27:00,
2013-02-06 04:42:00,26.9,25.0,29.90,North,355,0.0,2.0,92,0.00,,,0.00,weatherlink.com 1.10,2013-02-06 09:42:00,
2013-02-06 04:58:00,26.9,25.0,29.91,NW,305,0.0,2.0,91,0.00,,,0.00,weatherlink.com 1.10,2013-02-06 09:58:00,
2013-02-06 05:13:00,27.0,25.0,29.91,NW,305,0.0,1.0,91,0.00,,,0.00,weatherlink.com 1.10,2013-02-06 10:13:00,
2013-02-06 05:28:00,27.0,25.0,29.91,NW,305,1.0,2.0,92,0.00,,,0.00,weatherlink.com 1.10,2013-02-06 10:28:00,
2013-02-06 05:43:00,27.2,25.0,29.91,NW,305,0.0,2.0,92,0.00,,,0.00,weatherlink.com 1.10,2013-02-06 10:43:00,
2013-02-06 05:58:00,27.3,25.0,29.92,NW,318,0.0,1.0,91,0.00,,,0.00,weatherlink.com 1.10,2013-02-06 10:58:00,
2013-02-06 06:14:00,27.4,25.0,29.92,NNW,346,0.0,5.0,91,0.00,,,0.00,weatherlink.com 1.10,2013-02-06 11:14:00,
2013-02-06 06:29:00,27.6,25.0,29.93,NNW,332,1.0,4.0,91,0.00,,,0.00,weatherlink.com 1.10,2013-02-06 11:29:00,
2013-02-06 06:44:00,27.5,25.0,29.93,NNW,329,0.0,0.0,90,0.00,,,0.00,weatherlink.com 1.10,2013-02-06 11:44:00,
2013-02-06 06:59:00,27.7,25.0,29.94,North,350,2.0,3.0,90,0.00,,,0.00,weatherlink.com 1.10,2013-02-06 11:59:00,
2013-02-06 07:15:00,27.8,26.0,29.95,NNW,332,1.0,2.0,91,0.00,,,0.00,weatherlink.com 1.10,2013-02-06 12:15:00,
2013-02-06 07:30:00,27.9,25.0,29.95,NW,315,0.0,2.0,90,0.00,,,0.00,weatherlink.com 1.10,2013-02-06 12:30:00,
2013-02-06 07:45:00,28.0,26.0,29.96,NW,315,1.0,1.0,90,0.00,,,0.00,weatherlink.com 1.10,2013-02-06 12:45:00,
2013-02-06 08:00:00,28.1,25.0,29.96,NW,315,1.0,2.0,89,0.00,,,0.00,weatherlink.com 1.10,2013-02-06 13:00:00,
2013-02-06 08:15:00,27.9,25.0,29.96,West,276,0.0,5.0,88,0.00,,,0.00,weatherlink.com 1.10,2013-02-06 13:15:00,
2013-02-06 08:32:00,28.1,25.0,29.97,West,270,2.0,3.0,87,0.00,,,0.00,weatherlink.com 1.10,2013-02-06 13:32:00,
2013-02-06 08:47:00,28.7,25.0,29.97,West,273,4.0,5.0,85,0.00,,,0.00,weatherlink.com 1.10,2013-02-06 13:47:00,
2013-02-06 09:03:00,30.5,26.0,29.97,West,260,1.0,6.0,83,0.00,,,0.00,weatherlink.com 1.10,2013-02-06 14:03:00,
2013-02-06 09:17:00,31.2,26.0,29.98,West,264,1.0,6.0,81,0.00,,,0.00,weatherlink.com 1.10,2013-02-06 14:17:00,
2013-02-06 09:32:00,30.7,26.0,29.97,West,262,4.0,8.0,82,0.01,,,0.01,weatherlink.com 1.10,2013-02-06 14:32:00,
2013-02-06 09:47:00,31.1,26.0,29.97,West,272,5.0,9.0,82,0.01,,,0.01,weatherlink.com 1.10,2013-02-06 14:47:00,
2013-02-06 10:03:00,31.6,27.0,29.97,West,264,2.0,9.0,83,0.02,,,0.02,weatherlink.com 1.10,2013-02-06 15:03:00,
2013-02-06 10:10:00,33.3,28.0,29.98,West,274,5.0,7.0,81,0.02,,,0.02,weatherlink.com 1.10,2013-02-06 15:10:00,
2013-02-06 10:25:00,36.6,28.0,29.97,West,261,3.0,8.0,72,0.03,,,0.03,weatherlink.com 1.10,2013-02-06 15:25:00,
2013-02-06 10:41:00,37.3,28.0,29.96,West,268,5.0,7.0,70,0.02,,,0.03,weatherlink.com 1.10,2013-02-06 15:41:00,
2013-02-06 10:56:00,37.5,26.0,29.97,West,261,3.0,7.0,64,0.03,,,0.04,weatherlink.com 1.10,2013-02-06 15:56:00,
2013-02-06 11:11:00,38.2,27.0,29.96,WSW,255,2.0,10.0,64,0.02,,,0.04,weatherlink.com 1.10,2013-02-06 16:11:00,
2013-02-06 11:26:00,39.0,28.0,29.97,WSW,254,5.0,8.0,66,0.01,,,0.04,weatherlink.com 1.10,2013-02-06 16:26:00,
2013-02-06 11:41:00,39.1,25.0,29.96,West,276,8.0,13.0,58,0.02,,,0.05,weatherlink.com 1.10,2013-02-06 16:41:00,
2013-02-06 11:56:00,39.5,26.0,29.96,WSW,251,7.0,10.0,59,0.01,,,0.05,weatherlink.com 1.10,2013-02-06 16:56:00,
2013-02-06 12:11:00,41.2,26.0,29.95,West,262,6.0,9.0,55,0.01,,,0.05,weatherlink.com 1.10,2013-02-06 17:11:00,
2013-02-06 12:27:00,41.3,28.0,29.94,West,264,11.0,11.0,59,0.00,,,0.05,weatherlink.com 1.10,2013-02-06 17:27:00,
2013-02-06 12:42:00,40.6,26.0,29.95,WSW,258,6.0,11.0,56,0.00,,,0.05,weatherlink.com 1.10,2013-02-06 17:42:00,
2013-02-06 12:57:00,41.6,25.0,29.95,West,273,9.0,11.0,53,0.00,,,0.05,weatherlink.com 1.10,2013-02-06 17:57:00,
2013-02-06 13:12:00,40.5,24.0,29.95,West,281,8.0,13.0,52,0.00,,,0.05,weatherlink.com 1.10,2013-02-06 18:12:00,
2013-02-06 13:27:00,37.7,23.0,29.95,WNW,283,8.0,12.0,55,0.00,,,0.05,weatherlink.com 1.10,2013-02-06 18:27:00,
2013-02-06 13:43:00,38.4,22.0,29.96,West,259,15.0,15.0,52,0.00,,,0.05,weatherlink.com 1.10,2013-02-06 18:43:00,
2013-02-06 13:58:00,37.3,22.0,29.96,West,278,12.0,14.0,55,0.00,,,0.05,weatherlink.com 1.10,2013-02-06 18:58:00,
2013-02-06 14:13:00,40.1,22.0,29.97,West,265,6.0,13.0,49,0.00,,,0.05,weatherlink.com 1.10,2013-02-06 19:13:00,
2013-02-06 14:28:00,37.3,21.0,29.97,West,266,11.0,14.0,53,0.00,,,0.05,weatherlink.com 1.10,2013-02-06 19:28:00,
2013-02-06 14:44:00,38.6,24.0,29.98,West,263,7.0,11.0,55,0.00,,,0.05,weatherlink.com 1.10,2013-02-06 19:44:00,
2013-02-06 14:59:00,36.9,21.0,29.98,West,263,9.0,16.0,54,0.00,,,0.05,weatherlink.com 1.10,2013-02-06 19:59:00,
2013-02-06 15:14:00,38.1,23.0,29.99,West,259,9.0,15.0,55,0.00,,,0.05,weatherlink.com 1.10,2013-02-06 20:14:00,
2013-02-06 15:29:00,36.1,22.0,29.99,WSW,257,8.0,15.0,58,0.00,,,0.05,weatherlink.com 1.10,2013-02-06 20:29:00,
2013-02-06 15:44:00,36.6,23.0,29.99,West,263,9.0,13.0,59,0.00,,,0.05,weatherlink.com 1.10,2013-02-06 20:44:00,
2013-02-06 15:59:00,37.1,22.0,30.00,West,268,15.0,20.0,54,0.00,,,0.05,weatherlink.com 1.10,2013-02-06 20:59:00,
2013-02-06 16:15:00,36.9,20.0,30.01,West,280,10.0,16.0,50,0.00,,,0.05,weatherlink.com 1.10,2013-02-06 21:15:00,
2013-02-06 16:30:00,36.1,19.0,30.02,West,264,9.0,18.0,51,0.00,,,0.05,weatherlink.com 1.10,2013-02-06 21:30:00,
2013-02-06 16:45:00,35.8,21.0,30.02,West,281,8.0,15.0,55,0.00,,,0.05,weatherlink.com 1.10,2013-02-06 21:45:00,
2013-02-06 17:00:00,35.1,20.0,30.03,NW,321,6.0,11.0,54,0.00,,,0.05,weatherlink.com 1.10,2013-02-06 22:00:00,
2013-02-06 17:17:00,34.6,20.0,30.04,West,271,5.0,13.0,55,0.00,,,0.05,weatherlink.com 1.10,2013-02-06 22:17:00,
2013-02-06 17:32:00,34.2,19.0,30.05,West,261,4.0,9.0,55,0.00,,,0.05,weatherlink.com 1.10,2013-02-06 22:32:00,
2013-02-06 17:47:00,33.9,20.0,30.06,West,273,4.0,10.0,56,0.00,,,0.05,weatherlink.com 1.10,2013-02-06 22:47:00,
2013-02-06 18:03:00,33.7,20.0,30.07,West,267,7.0,8.0,57,0.00,,,0.05,weatherlink.com 1.10,2013-02-06 23:03:00,
2013-02-06 18:17:00,33.4,20.0,30.08,West,261,3.0,9.0,58,0.00,,,0.05,weatherlink.com 1.10,2013-02-06 23:17:00,
2013-02-06 18:32:00,33.3,19.0,30.09,West,273,8.0,10.0,55,0.00,,,0.05,weatherlink.com 1.10,2013-02-06 23:32:00,
2013-02-06 18:47:00,33.1,17.0,30.10,West,268,5.0,11.0,53,0.00,,,0.05,weatherlink.com 1.10,2013-02-06 23:47:00,
2013-02-06 19:03:00,32.9,17.0,30.11,WSW,246,6.0,14.0,53,0.00,,,0.05,weatherlink.com 1.10,2013-02-07 00:03:00,
2013-02-06 19:18:00,32.4,16.0,30.12,West,264,9.0,11.0,52,0.00,,,0.05,weatherlink.com 1.10,2013-02-07 00:18:00,
2013-02-06 19:33:00,32.4,16.0,30.13,West,264,5.0,14.0,50,0.00,,,0.05,weatherlink.com 1.10,2013-02-07 00:33:00,
2013-02-06 19:48:00,32.1,16.0,30.14,SW,217,6.0,13.0,51,0.00,,,0.05,weatherlink.com 1.10,2013-02-07 00:48:00,
2013-02-06 20:03:00,31.5,15.0,30.14,WNW,296,8.0,11.0,51,0.00,,,0.05,weatherlink.com 1.10,2013-02-07 01:03:00,
2013-02-06 20:19:00,31.2,13.0,30.15,West,269,6.0,13.0,48,0.00,,,0.05,weatherlink.com 1.10,2013-02-07 01:19:00,
2013-02-06 20:34:00,31.1,15.0,30.16,West,261,10.0,12.0,51,0.00,,,0.05,weatherlink.com 1.10,2013-02-07 01:34:00,
2013-02-06 20:49:00,30.7,13.0,30.17,West,265,7.0,14.0,47,0.00,,,0.05,weatherlink.com 1.10,2013-02-07 01:49:00,
2013-02-06 21:04:00,30.1,13.0,30.17,WSW,257,6.0,10.0,49,0.00,,,0.05,weatherlink.com 1.10,2013-02-07 02:04:00,
2013-02-06 21:21:00,29.7,13.0,30.19,West,259,6.0,11.0,49,0.00,,,0.05,weatherlink.com 1.10,2013-02-07 02:21:00,
2013-02-06 21:36:00,30.1,11.0,30.19,NW,318,8.0,18.0,45,0.00,,,0.05,weatherlink.com 1.10,2013-02-07 02:36:00,
2013-02-06 21:52:00,29.9,10.0,30.20,West,268,8.0,12.0,44,0.00,,,0.05,weatherlink.com 1.10,2013-02-07 02:52:00,
2013-02-06 22:06:00,29.3,11.0,30.22,West,261,6.0,12.0,47,0.00,,,0.05,weatherlink.com 1.10,2013-02-07 03:06:00,
2013-02-06 22:21:00,28.7,11.0,30.23,SW,223,5.0,9.0,47,0.00,,,0.05,weatherlink.com 1.10,2013-02-07 03:21:00,
2013-02-06 22:36:00,28.5,10.0,30.24,West,275,8.0,10.0,46,0.00,,,0.05,weatherlink.com 1.10,2013-02-07 03:36:00,
2013-02-06 22:51:00,28.3,10.0,30.24,WSW,257,5.0,11.0,47,0.00,,,0.05,weatherlink.com 1.10,2013-02-07 03:51:00,
2013-02-06 23:06:00,28.1,9.0,30.24,WSW,239,1.0,11.0,45,0.00,,,0.05,weatherlink.com 1.10,2013-02-07 04:06:00,
2013-02-06 23:21:00,27.9,9.0,30.24,SW,225,6.0,10.0,45,0.00,,,0.05,weatherlink.com 1.10,2013-02-07 04:21:00,
2013-02-06 23:36:00,27.8,8.0,30.24,West,263,7.0,10.0,44,0.00,,,0.05,weatherlink.com 1.10,2013-02-07 04:36:00,
2013-02-06 23:52:00,27.6,8.0,30.26,West,262,7.0,12.0,44,0.00,,,0.05,weatherlink.com 1.10,2013-02-07 04:52:00,